Weather History for KVLD - December, 2013

Change the Weather History Date:

Wednesday, December 4, 2013

  Actual Average Record
Temperature  
Mean Temperature 69 °F 55 °F  
Max Temperature 80 °F 67 °F 81 °F (2012)
Min Temperature 57 °F 44 °F 30 °F (2000)
Degree Days  
Heating Degree Days 0 10  
Month to date heating degree days 10 40  
Since 1 July heating degree days 176 271  
Cooling Degree Days 4    
Growing Degree Days 18 (Base 50)    
Moisture  
Dew Point 59 °F    
Average Humidity 74    
Maximum Humidity 93    
Minimum Humidity 54    
Precipitation  
Precipitation 0.00 in 0.11 in 0.10 in (1997)
Month to date precipitation 0.00 0.44  
Year to date precipitation 41.34 47.87  
Sea Level Pressure  
Sea Level Pressure 30.04 in    
Wind  
Wind Speed 2 mph (South)    
Max Wind Speed 9 mph    
Max Gust Speed 13 mph    
Visibility 4 miles    
Events Fog    
T = Trace of Precipitation, MM = Missing Value Source: NWS Daily Summary

Daily Weather History Graph

Daily Weather History Graph

Search for Another Location

Airport or City:

Trip Planner

Search our weather history database for the weather conditions in past years. The results will help you decide how hot, cold, wet, or windy it might be!

Date:

Astronomy

Dec. 04, 2013 Rise Set
Actual Time 7:15 AM EST 5:31 PM EST
Civil Twilight 6:49 AM EST 5:57 PM EST
Nautical Twilight 6:19 AM EST 6:27 PM EST
Astronomical Twilight 5:50 AM EST 6:56 PM EST
Moon 8:45 AM EST (12/4) 7:37 PM EST (12/4)
Length of Visible Light 11h 08m
Length of Day
10h 15m
Waxing Crescent, 4% of the Moon is Illuminated
Dec 4
Waxing Crescent
Dec 9
First Quarter
Dec 17
Full
Dec 25
Last Quarter
Jan 1
New

Hourly Weather History & Observations

Time (EST) Temp. Heat Index Dew Point Humidity Pressure Visibility Wind Dir Wind Speed Gust Speed Precip Events Conditions
12:53 AM 62.1 °F - 57.9 °F 86% 29.97 in 9.0 mi South 5.8 mph - N/A   Clear
1:53 AM 60.1 °F - 57.0 °F 90% 29.98 in 4.0 mi South 4.6 mph - N/A   Clear
2:20 AM 60.8 °F - 57.2 °F 88% 29.96 in 1.8 mi South 3.5 mph - N/A   Partly Cloudy
2:28 AM 60.8 °F - 57.2 °F 88% 29.96 in 0.8 mi Calm Calm - N/A   Mostly Cloudy
2:38 AM 60.8 °F - 57.2 °F 88% 29.96 in 0.5 mi Calm Calm - N/A Fog Fog
2:53 AM 60.1 °F - 55.9 °F 86% 29.99 in 0.2 mi Calm Calm - N/A Fog Fog
3:36 AM 57.2 °F - 55.4 °F 94% 29.98 in 0.5 mi South 3.5 mph - N/A Fog Fog
3:53 AM 57.0 °F - 54.0 °F 89% 30.00 in 0.2 mi South 3.5 mph - N/A Fog Fog
4:16 AM 59.0 °F - 55.4 °F 88% 29.98 in 0.5 mi South 3.5 mph - N/A Fog Fog
4:35 AM 60.8 °F - 57.2 °F 88% 29.99 in 0.2 mi Calm Calm - N/A Fog Fog
4:53 AM 57.9 °F - 55.9 °F 93% 30.01 in 0.2 mi Calm Calm - N/A Fog Fog
5:24 AM 57.2 °F - 55.4 °F 94% 29.99 in 0.2 mi Calm Calm - N/A Fog Fog
5:36 AM 59.0 °F - 55.4 °F 88% 29.99 in 0.5 mi Calm Calm - N/A Fog Fog
5:53 AM 57.9 °F - 55.9 °F 93% 30.02 in 0.5 mi Calm Calm - N/A Fog Fog
6:00 AM 57.2 °F - 55.4 °F 94% 29.99 in 0.2 mi Calm Calm - N/A Fog Fog
6:09 AM 57.2 °F - 55.4 °F 94% 30.00 in 0.2 mi Calm Calm - N/A Fog Fog
6:53 AM 60.1 °F - 57.0 °F 90% 30.03 in 0.2 mi Calm Calm - N/A Fog Fog
7:45 AM 60.8 °F - 57.2 °F 88% 30.01 in 0.2 mi SSE 3.5 mph - 0.01 in Fog Fog
7:53 AM 60.1 °F - 57.0 °F 90% 30.04 in 0.2 mi South 4.6 mph - 0.01 in Fog Fog
8:53 AM 62.1 °F - 59.0 °F 90% 30.07 in 0.2 mi Calm Calm - N/A Fog Fog
9:53 AM 64.9 °F - 62.1 °F 90% 30.10 in 0.2 mi South 4.6 mph - N/A Fog Fog
10:10 AM 66.2 °F - 62.6 °F 88% 30.08 in 0.5 mi South 5.8 mph - N/A Fog Fog
10:37 AM 66.2 °F - 62.6 °F 88% 30.08 in 3.0 mi South 3.5 mph - N/A   Overcast
10:44 AM 66.2 °F - 62.6 °F 88% 30.08 in 2.0 mi South 3.5 mph - N/A   Overcast
10:53 AM 68.0 °F - 64.0 °F 87% 30.10 in 2.0 mi South 3.5 mph - N/A   Overcast
11:08 AM 69.8 °F - 64.4 °F 83% 30.08 in 3.0 mi South 4.6 mph - N/A   Haze
11:36 AM 71.6 °F - 64.4 °F 78% 30.07 in 9.0 mi SSE 4.6 mph - N/A   Scattered Clouds
11:53 AM 73.9 °F - 64.0 °F 71% 30.08 in 10.0 mi Calm Calm - N/A   Scattered Clouds
12:53 PM 77.0 °F - 64.0 °F 64% 30.06 in 10.0 mi Calm Calm - N/A   Scattered Clouds
1:53 PM 79.0 °F - 63.0 °F 58% 30.04 in 10.0 mi Calm Calm - N/A   Scattered Clouds
2:53 PM 80.1 °F 81.5 °F 63.0 °F 56% 30.02 in 10.0 mi South 6.9 mph - N/A   Scattered Clouds
3:53 PM 78.1 °F - 63.0 °F 60% 30.02 in 10.0 mi South 6.9 mph - N/A   Clear
4:53 PM 75.9 °F - 63.0 °F 64% 30.04 in 10.0 mi South 4.6 mph - N/A   Partly Cloudy
5:53 PM 71.1 °F - 64.0 °F 78% 30.05 in 10.0 mi Calm Calm - N/A   Mostly Cloudy
6:53 PM 69.1 °F - 63.0 °F 81% 30.06 in 10.0 mi Calm Calm - N/A   Scattered Clouds
7:53 PM 66.9 °F - 62.1 °F 84% 30.06 in 9.0 mi Calm Calm - N/A   Clear
8:53 PM 64.9 °F - 61.0 °F 87% 30.08 in 8.0 mi Calm Calm - N/A   Clear
9:53 PM 63.0 °F - 59.0 °F 87% 30.10 in 10.0 mi Calm Calm - N/A   Clear
10:12 PM 62.6 °F - 57.2 °F 82% 30.08 in 1.5 mi Calm Calm - N/A   Clear
10:17 PM 60.8 °F - 57.2 °F 88% 30.08 in 0.5 mi Calm Calm - N/A Fog Fog
10:24 PM 62.6 °F - 57.2 °F 82% 30.08 in 10.0 mi Calm Calm - N/A   Clear
10:53 PM 62.1 °F - 57.9 °F 86% 30.11 in 10.0 mi Calm Calm - N/A   Clear
11:00 PM 62.6 °F - 57.2 °F 82% 30.09 in 0.5 mi Calm Calm - N/A   Haze
11:17 PM 60.8 °F - 57.2 °F 88% 30.09 in 1.5 mi Calm Calm - N/A   Clear
11:34 PM 60.8 °F - 55.4 °F 82% 30.09 in 3.0 mi South 3.5 mph - N/A   Clear
11:53 PM 64.0 °F - 60.1 °F 87% 30.12 in 5.0 mi South 3.5 mph - N/A   Clear